Time,TemperatureF,DewpointF,PressureIn,WindDirection,WindDirectionDegrees,WindSpeedMPH,WindSpeedGustMPH,Humidity,HourlyPrecipIn,Conditions,Clouds,dailyrainin,SoftwareType,DateUTC
2013-02-19 00:01:00,24.8,14.0,30.09,WNW,293,5.4,10.5,63,0.00,,,0.00,WUHU216HW,2013-02-19 06:01:00,
2013-02-19 00:06:00,24.8,14.3,30.09,NW,315,7.8,10.1,64,0.00,,,0.00,WUHU216HW,2013-02-19 06:06:00,
2013-02-19 00:11:00,24.7,14.1,30.09,WNW,293,5.4,8.1,64,0.00,,,0.00,WUHU216HW,2013-02-19 06:11:00,
2013-02-19 00:16:00,24.5,14.3,30.09,NW,315,7.2,9.2,65,0.00,,,0.00,WUHU216HW,2013-02-19 06:16:00,
2013-02-19 00:21:00,24.3,14.1,30.10,NW,315,10.7,10.7,65,0.00,,,0.00,WUHU216HW,2013-02-19 06:21:00,
2013-02-19 00:26:00,24.1,14.3,30.10,WNW,293,8.7,10.7,66,0.00,,,0.00,WUHU216HW,2013-02-19 06:26:00,
2013-02-19 00:31:00,24.1,14.3,30.10,WNW,293,6.9,10.3,66,0.00,,,0.00,WUHU216HW,2013-02-19 06:31:00,
2013-02-19 00:36:00,24.1,14.7,30.10,NW,315,7.2,8.1,67,0.00,,,0.00,WUHU216HW,2013-02-19 06:36:00,
2013-02-19 00:41:00,23.9,14.5,30.10,NW,315,6.9,7.6,67,0.00,,,0.00,WUHU216HW,2013-02-19 06:41:00,
2013-02-19 00:46:00,23.9,14.5,30.10,NW,315,6.9,7.8,67,0.00,,,0.00,WUHU216HW,2013-02-19 06:46:00,
2013-02-19 00:51:00,23.6,14.6,30.10,WNW,293,6.3,9.8,68,0.00,,,0.00,WUHU216HW,2013-02-19 06:51:00,
2013-02-19 00:56:00,23.6,14.9,30.10,NW,315,8.5,10.5,69,0.00,,,0.00,WUHU216HW,2013-02-19 06:56:00,
2013-02-19 01:01:00,23.6,14.6,30.10,NW,315,9.2,10.5,68,0.00,,,0.00,WUHU216HW,2013-02-19 07:01:00,
2013-02-19 01:06:00,23.4,14.8,30.10,WNW,293,9.8,10.5,69,0.00,,,0.00,WUHU216HW,2013-02-19 07:06:00,
2013-02-19 01:11:00,23.4,14.8,30.10,WNW,293,8.1,10.5,69,0.00,,,0.00,WUHU216HW,2013-02-19 07:11:00,
2013-02-19 01:16:00,23.2,14.6,30.10,NW,315,7.6,8.5,69,0.00,,,0.00,WUHU216HW,2013-02-19 07:16:00,
2013-02-19 01:21:00,23.0,15.0,30.11,NNW,338,9.2,9.2,71,0.00,,,0.00,WUHU216HW,2013-02-19 07:21:00,
2013-02-19 01:26:00,23.0,15.0,30.11,NW,315,10.1,10.3,71,0.00,,,0.00,WUHU216HW,2013-02-19 07:26:00,
2013-02-19 01:31:00,23.0,15.4,30.11,NW,315,8.3,12.1,72,0.00,,,0.00,WUHU216HW,2013-02-19 07:31:00,
2013-02-19 01:36:00,23.2,15.6,30.12,NW,315,9.6,12.1,72,0.00,,,0.00,WUHU216HW,2013-02-19 07:36:00,
2013-02-19 01:41:00,23.2,15.6,30.12,NNW,338,7.6,10.7,72,0.00,,,0.00,WUHU216HW,2013-02-19 07:41:00,
2013-02-19 01:46:00,23.2,15.6,30.11,WSW,248,11.4,12.1,72,0.00,,,0.00,WUHU216HW,2013-02-19 07:46:00,
2013-02-19 01:51:00,23.2,15.6,30.12,WNW,293,11.4,12.1,72,0.00,,,0.00,WUHU216HW,2013-02-19 07:51:00,
2013-02-19 01:56:00,23.2,15.6,30.12,WNW,293,12.1,12.8,72,0.00,,,0.00,WUHU216HW,2013-02-19 07:56:00,
2013-02-19 02:01:00,23.0,15.7,30.12,NW,315,10.5,12.8,73,0.00,,,0.00,WUHU216HW,2013-02-19 08:01:00,
2013-02-19 02:06:00,23.0,15.7,30.12,NNW,338,10.1,13.2,73,0.00,,,0.00,WUHU216HW,2013-02-19 08:06:00,
2013-02-19 02:11:00,23.0,15.7,30.13,NW,315,9.2,13.2,73,0.00,,,0.00,WUHU216HW,2013-02-19 08:11:00,
2013-02-19 02:16:00,22.9,15.9,30.12,NW,315,10.3,12.3,74,0.00,,,0.00,WUHU216HW,2013-02-19 08:16:00,
2013-02-19 02:21:00,22.9,15.9,30.12,NNW,338,12.8,12.8,74,0.00,,,0.00,WUHU216HW,2013-02-19 08:21:00,
2013-02-19 02:26:00,22.7,15.7,30.13,NNW,338,12.1,12.8,74,0.00,,,0.00,WUHU216HW,2013-02-19 08:26:00,
2013-02-19 02:31:00,22.7,15.7,30.13,WNW,293,9.2,14.8,74,0.00,,,0.00,WUHU216HW,2013-02-19 08:31:00,
2013-02-19 02:36:00,22.7,15.9,30.13,WNW,293,8.5,14.8,75,0.00,,,0.00,WUHU216HW,2013-02-19 08:36:00,
2013-02-19 02:41:00,22.7,15.9,30.13,NW,315,12.8,12.8,75,0.00,,,0.00,WUHU216HW,2013-02-19 08:41:00,
2013-02-19 02:46:00,22.7,15.9,30.12,NW,315,11.0,12.8,75,0.00,,,0.00,WUHU216HW,2013-02-19 08:46:00,
2013-02-19 02:51:00,22.5,15.8,30.12,NNW,338,13.0,13.0,75,0.00,,,0.00,WUHU216HW,2013-02-19 08:51:00,
2013-02-19 02:56:00,22.5,15.8,30.12,NW,315,8.9,13.0,75,0.00,,,0.00,WUHU216HW,2013-02-19 08:56:00,
2013-02-19 03:01:00,22.5,15.8,30.12,NNE,23,9.8,12.3,75,0.00,,,0.00,WUHU216HW,2013-02-19 09:01:00,
2013-02-19 03:06:00,22.7,15.9,30.12,NW,315,7.2,10.1,75,0.00,,,0.00,WUHU216HW,2013-02-19 09:06:00,
2013-02-19 03:11:00,22.7,15.7,30.12,NNW,338,11.4,18.6,74,0.00,,,0.00,WUHU216HW,2013-02-19 09:11:00,
2013-02-19 03:16:00,22.7,15.7,30.12,NW,315,9.2,18.6,74,0.00,,,0.00,WUHU216HW,2013-02-19 09:16:00,
2013-02-19 03:21:00,22.9,15.5,30.12,NW,315,11.4,16.3,73,0.00,,,0.00,WUHU216HW,2013-02-19 09:21:00,
2013-02-19 03:26:00,22.7,15.3,30.12,NW,315,11.6,16.3,73,0.00,,,0.00,WUHU216HW,2013-02-19 09:26:00,
2013-02-19 03:31:00,22.7,15.3,30.13,NNW,338,13.2,18.3,73,0.00,,,0.00,WUHU216HW,2013-02-19 09:31:00,
2013-02-19 03:36:00,22.9,15.5,30.13,WNW,293,11.4,18.3,73,0.00,,,0.00,WUHU216HW,2013-02-19 09:36:00,
2013-02-19 03:41:00,22.7,15.3,30.13,WNW,293,11.6,15.0,73,0.00,,,0.00,WUHU216HW,2013-02-19 09:41:00,
2013-02-19 03:46:00,22.7,15.3,30.13,NW,315,11.4,21.5,73,0.00,,,0.00,WUHU216HW,2013-02-19 09:46:00,
2013-02-19 03:51:00,22.7,15.3,30.13,NW,315,11.6,21.5,73,0.00,,,0.00,WUHU216HW,2013-02-19 09:51:00,
2013-02-19 03:56:00,22.7,15.3,30.13,NW,315,9.4,16.6,73,0.00,,,0.00,WUHU216HW,2013-02-19 09:56:00,
2013-02-19 04:01:00,22.7,15.7,30.13,NW,315,9.4,13.0,74,0.00,,,0.00,WUHU216HW,2013-02-19 10:01:00,
2013-02-19 04:06:00,22.7,15.7,30.13,NW,315,9.2,14.1,74,0.00,,,0.00,WUHU216HW,2013-02-19 10:06:00,
2013-02-19 04:11:00,22.5,15.5,30.14,West,270,7.8,14.1,74,0.00,,,0.00,WUHU216HW,2013-02-19 10:11:00,
2013-02-19 04:16:00,22.5,15.8,30.14,WNW,293,9.8,12.3,75,0.00,,,0.00,WUHU216HW,2013-02-19 10:16:00,
2013-02-19 04:21:00,22.3,15.6,30.14,NW,315,11.0,13.9,75,0.00,,,0.00,WUHU216HW,2013-02-19 10:21:00,
2013-02-19 04:26:00,22.3,15.6,30.14,NW,315,13.2,13.9,75,0.00,,,0.00,WUHU216HW,2013-02-19 10:26:00,
2013-02-19 04:31:00,22.1,15.4,30.14,WNW,293,12.3,14.3,75,0.00,,,0.00,WUHU216HW,2013-02-19 10:31:00,
2013-02-19 04:36:00,22.1,15.4,30.15,NW,315,13.6,16.3,75,0.00,,,0.00,WUHU216HW,2013-02-19 10:36:00,
2013-02-19 04:41:00,22.0,15.0,30.15,NW,315,18.1,18.1,74,0.00,,,0.00,WUHU216HW,2013-02-19 10:41:00,
2013-02-19 04:46:00,22.0,14.6,30.15,NNW,338,13.9,19.5,73,0.00,,,0.00,WUHU216HW,2013-02-19 10:46:00,
2013-02-19 04:51:00,21.8,14.1,30.15,NW,315,11.9,19.5,72,0.00,,,0.00,WUHU216HW,2013-02-19 10:51:00,
2013-02-19 04:56:00,21.6,14.0,30.16,NNW,338,6.5,15.7,72,0.00,,,0.00,WUHU216HW,2013-02-19 10:56:00,
2013-02-19 05:01:00,21.4,13.4,30.16,NNW,338,6.3,11.4,71,0.00,,,0.00,WUHU216HW,2013-02-19 11:01:00,
2013-02-19 05:06:00,21.2,13.6,30.17,NW,315,9.4,10.5,72,0.00,,,0.00,WUHU216HW,2013-02-19 11:06:00,
2013-02-19 05:11:00,21.2,13.6,30.17,NW,315,8.3,9.4,72,0.00,,,0.00,WUHU216HW,2013-02-19 11:11:00,
2013-02-19 05:16:00,20.9,13.2,30.18,NNW,338,4.3,8.5,72,0.00,,,0.00,WUHU216HW,2013-02-19 11:16:00,
2013-02-19 05:21:00,20.9,12.9,30.18,NW,315,9.6,9.6,71,0.00,,,0.00,WUHU216HW,2013-02-19 11:21:00,
2013-02-19 05:26:00,20.5,11.9,30.18,NW,315,19.0,19.0,69,0.00,,,0.00,WUHU216HW,2013-02-19 11:26:00,
2013-02-19 05:31:00,20.2,10.9,30.18,NW,315,19.2,19.2,67,0.00,,,0.00,WUHU216HW,2013-02-19 11:31:00,
2013-02-19 05:36:00,20.0,10.0,30.19,NW,315,13.4,19.2,65,0.00,,,0.00,WUHU216HW,2013-02-19 11:36:00,
2013-02-19 05:41:00,19.8,9.8,30.19,NW,315,12.8,15.4,65,0.00,,,0.00,WUHU216HW,2013-02-19 11:41:00,
2013-02-19 05:46:00,19.4,9.5,30.20,NW,315,11.2,15.4,65,0.00,,,0.00,WUHU216HW,2013-02-19 11:46:00,
2013-02-19 05:51:00,19.3,9.6,30.20,WNW,293,7.8,13.0,66,0.00,,,0.00,WUHU216HW,2013-02-19 11:51:00,
2013-02-19 05:56:00,19.1,9.5,30.20,NNW,338,11.0,14.1,66,0.00,,,0.00,WUHU216HW,2013-02-19 11:56:00,
2013-02-19 06:01:00,18.9,9.3,30.21,NNW,338,10.5,15.2,66,0.00,,,0.00,WUHU216HW,2013-02-19 12:01:00,
2013-02-19 06:06:00,18.7,9.2,30.20,NW,315,11.4,15.2,66,0.00,,,0.00,WUHU216HW,2013-02-19 12:06:00,
2013-02-19 06:11:00,18.5,9.0,30.19,NW,315,12.8,17.4,66,0.00,,,0.00,WUHU216HW,2013-02-19 12:11:00,
2013-02-19 06:16:00,18.4,8.8,30.21,NNW,338,12.3,17.4,66,0.00,,,0.00,WUHU216HW,2013-02-19 12:16:00,
2013-02-19 06:21:00,18.2,8.6,30.21,WNW,293,10.5,15.7,66,0.00,,,0.00,WUHU216HW,2013-02-19 12:21:00,
2013-02-19 06:26:00,18.2,9.0,30.21,NNW,338,13.4,13.6,67,0.00,,,0.00,WUHU216HW,2013-02-19 12:26:00,
2013-02-19 06:31:00,18.0,8.8,30.21,NW,315,11.4,14.3,67,0.00,,,0.00,WUHU216HW,2013-02-19 12:31:00,
2013-02-19 06:36:00,17.8,8.6,30.21,NW,315,7.8,14.3,67,0.00,,,0.00,WUHU216HW,2013-02-19 12:36:00,
2013-02-19 06:41:00,17.6,8.8,30.21,NNW,338,10.5,13.2,68,0.00,,,0.00,WUHU216HW,2013-02-19 12:41:00,
2013-02-19 06:46:00,17.6,8.8,30.21,NW,315,11.2,11.2,68,0.00,,,0.00,WUHU216HW,2013-02-19 12:46:00,
2013-02-19 06:51:00,17.5,8.6,30.22,NW,315,7.8,15.2,68,0.00,,,0.00,WUHU216HW,2013-02-19 12:51:00,
2013-02-19 06:56:00,17.3,8.8,30.22,NW,315,7.4,15.2,69,0.00,,,0.00,WUHU216HW,2013-02-19 12:56:00,
2013-02-19 07:01:00,17.1,8.6,30.22,NW,315,9.2,14.3,69,0.00,,,0.00,WUHU216HW,2013-02-19 13:01:00,
2013-02-19 07:06:00,17.1,8.6,30.23,NW,315,9.2,14.3,69,0.00,,,0.00,WUHU216HW,2013-02-19 13:06:00,
2013-02-19 07:11:00,16.9,8.5,30.22,NW,315,14.8,14.8,69,0.00,,,0.00,WUHU216HW,2013-02-19 13:11:00,
2013-02-19 07:16:00,16.9,8.8,30.23,North,0,8.1,14.8,70,0.00,,,0.00,WUHU216HW,2013-02-19 13:16:00,
2013-02-19 07:21:00,16.9,8.8,30.23,NW,315,9.4,14.8,70,0.00,,,0.00,WUHU216HW,2013-02-19 13:21:00,
2013-02-19 07:26:00,16.9,9.1,30.24,WNW,293,8.9,12.8,71,0.00,,,0.00,WUHU216HW,2013-02-19 13:26:00,
2013-02-19 07:31:00,17.3,9.5,30.24,NNW,338,9.6,9.6,71,0.00,,,0.00,WUHU216HW,2013-02-19 13:31:00,
2013-02-19 07:36:00,17.6,9.5,30.24,NW,315,7.6,9.6,70,0.00,,,0.00,WUHU216HW,2013-02-19 13:36:00,
2013-02-19 07:41:00,17.6,9.5,30.25,NW,315,5.8,9.2,70,0.00,,,0.00,WUHU216HW,2013-02-19 13:41:00,
2013-02-19 07:46:00,17.6,9.5,30.25,NNW,338,4.7,8.5,70,0.00,,,0.00,WUHU216HW,2013-02-19 13:46:00,
2013-02-19 07:51:00,17.5,9.0,30.26,NW,315,11.9,12.1,69,0.00,,,0.00,WUHU216HW,2013-02-19 13:51:00,
2013-02-19 07:56:00,17.5,8.6,30.26,NNW,338,7.6,12.1,68,0.00,,,0.00,WUHU216HW,2013-02-19 13:56:00,
2013-02-19 08:01:00,17.3,7.8,30.26,NNW,338,7.2,13.9,66,0.00,,,0.00,WUHU216HW,2013-02-19 14:01:00,
2013-02-19 08:06:00,17.3,7.8,30.27,NNW,338,6.7,13.9,66,0.00,,,0.00,WUHU216HW,2013-02-19 14:06:00,
2013-02-19 08:11:00,17.1,7.7,30.27,WNW,293,7.6,12.5,66,0.00,,,0.00,WUHU216HW,2013-02-19 14:11:00,
2013-02-19 08:16:00,17.3,7.8,30.27,NW,315,9.8,12.5,66,0.00,,,0.00,WUHU216HW,2013-02-19 14:16:00,
2013-02-19 08:21:00,17.6,7.8,30.27,WNW,293,13.4,18.3,65,0.00,,,0.00,WUHU216HW,2013-02-19 14:21:00,
2013-02-19 08:26:00,18.4,8.1,30.27,NW,315,11.4,18.3,64,0.00,,,0.00,WUHU216HW,2013-02-19 14:26:00,
2013-02-19 08:31:00,18.7,7.7,30.28,WNW,293,12.1,17.0,62,0.00,,,0.00,WUHU216HW,2013-02-19 14:31:00,
2013-02-19 08:36:00,19.1,8.1,30.28,NNW,338,7.2,14.3,62,0.00,,,0.00,WUHU216HW,2013-02-19 14:36:00,
2013-02-19 08:41:00,19.1,7.7,30.28,NW,315,14.1,17.2,61,0.00,,,0.00,WUHU216HW,2013-02-19 14:41:00,
2013-02-19 08:46:00,18.7,7.5,30.28,NNW,338,15.7,17.2,61,0.00,,,0.00,WUHU216HW,2013-02-19 14:46:00,
2013-02-19 08:51:00,18.5,7.3,30.28,North,0,11.9,19.2,61,0.00,,,0.00,WUHU216HW,2013-02-19 14:51:00,
2013-02-19 08:56:00,19.1,8.1,30.28,NNW,338,12.1,19.2,62,0.00,,,0.00,WUHU216HW,2013-02-19 14:56:00,
2013-02-19 09:01:00,19.8,8.5,30.28,WNW,293,10.7,14.3,61,0.00,,,0.00,WUHU216HW,2013-02-19 15:01:00,
2013-02-19 09:06:00,20.5,8.8,30.29,WNW,293,10.1,14.3,60,0.00,,,0.00,WUHU216HW,2013-02-19 15:06:00,
2013-02-19 09:11:00,20.3,8.6,30.28,NNW,338,13.4,17.4,60,0.00,,,0.00,WUHU216HW,2013-02-19 15:11:00,
2013-02-19 09:16:00,20.5,8.8,30.28,NW,315,11.4,17.4,60,0.00,,,0.00,WUHU216HW,2013-02-19 15:16:00,
2013-02-19 09:21:00,20.7,8.6,30.29,WNW,293,11.9,17.2,59,0.00,,,0.00,WUHU216HW,2013-02-19 15:21:00,
2013-02-19 09:26:00,21.4,8.9,30.29,NW,315,16.3,18.6,58,0.00,,,0.00,WUHU216HW,2013-02-19 15:26:00,
2013-02-19 09:53:00,25.2,10.0,30.29,NW,315,12.1,12.1,52,0.00,,,0.00,WUHU216HW,2013-02-19 15:53:00,
2013-02-19 09:58:00,24.7,9.9,30.30,WNW,293,12.3,17.2,53,0.00,,,0.00,WUHU216HW,2013-02-19 15:58:00,
2013-02-19 10:03:00,24.7,10.4,30.30,NNW,338,11.4,17.2,54,0.00,,,0.00,WUHU216HW,2013-02-19 16:03:00,
2013-02-19 10:08:00,25.2,10.0,30.31,NNW,338,12.5,17.2,52,0.00,,,0.00,WUHU216HW,2013-02-19 16:08:00,
2013-02-19 10:13:00,25.4,9.3,30.30,NW,315,15.7,17.2,50,0.00,,,0.00,WUHU216HW,2013-02-19 16:13:00,
2013-02-19 10:18:00,25.4,8.4,30.31,NW,315,13.6,17.0,48,0.00,,,0.00,WUHU216HW,2013-02-19 16:18:00,
2013-02-19 10:23:00,26.5,9.3,30.31,NW,315,10.1,17.0,48,0.00,,,0.00,WUHU216HW,2013-02-19 16:23:00,
2013-02-19 10:28:00,27.4,10.2,30.31,North,0,10.5,15.7,48,0.00,,,0.00,WUHU216HW,2013-02-19 16:28:00,
2013-02-19 10:33:00,27.5,8.4,30.31,NW,315,15.9,17.2,44,0.00,,,0.00,WUHU216HW,2013-02-19 16:33:00,
2013-02-19 10:38:00,27.4,8.7,30.31,NNW,338,10.7,17.7,45,0.00,,,0.00,WUHU216HW,2013-02-19 16:38:00,
2013-02-19 10:43:00,28.4,9.2,30.31,NNW,338,10.3,17.7,44,0.00,,,0.00,WUHU216HW,2013-02-19 16:43:00,
2013-02-19 10:48:00,29.5,10.2,30.31,WNW,293,16.3,16.3,44,0.00,,,0.00,WUHU216HW,2013-02-19 16:48:00,
2013-02-19 10:53:00,28.8,9.5,30.32,NW,315,17.9,17.9,44,0.00,,,0.00,WUHU216HW,2013-02-19 16:53:00,
2013-02-19 10:58:00,28.4,9.2,30.32,NNW,338,9.8,17.9,44,0.00,,,0.00,WUHU216HW,2013-02-19 16:58:00,
2013-02-19 11:03:00,29.5,9.7,30.32,WNW,293,12.3,15.2,43,0.00,,,0.00,WUHU216HW,2013-02-19 17:03:00,
2013-02-19 11:08:00,29.2,9.4,30.32,NNW,338,8.5,16.1,43,0.00,,,0.00,WUHU216HW,2013-02-19 17:08:00,
2013-02-19 11:13:00,29.5,9.7,30.32,NW,315,9.8,16.1,43,0.00,,,0.00,WUHU216HW,2013-02-19 17:13:00,
2013-02-19 11:18:00,30.1,9.2,30.32,NW,315,12.1,14.3,41,0.00,,,0.00,WUHU216HW,2013-02-19 17:18:00,
2013-02-19 11:23:00,29.9,8.5,30.32,NW,315,10.5,14.3,40,0.00,,,0.00,WUHU216HW,2013-02-19 17:23:00,
2013-02-19 11:28:00,29.9,9.6,30.32,WSW,248,11.2,14.1,42,0.00,,,0.00,WUHU216HW,2013-02-19 17:28:00,
2013-02-19 11:33:00,30.6,10.2,30.32,NW,315,11.4,14.1,42,0.00,,,0.00,WUHU216HW,2013-02-19 17:33:00,
2013-02-19 11:38:00,30.1,9.6,30.33,WNW,293,15.7,15.7,42,0.00,,,0.00,WUHU216HW,2013-02-19 17:38:00,
2013-02-19 11:43:00,30.6,9.6,30.33,WNW,293,16.6,16.6,41,0.00,,,0.00,WUHU216HW,2013-02-19 17:43:00,
2013-02-19 11:48:00,31.3,9.8,30.33,NW,315,14.1,16.6,40,0.00,,,0.00,WUHU216HW,2013-02-19 17:48:00,
2013-02-19 11:53:00,30.6,8.6,30.33,WNW,293,20.1,20.1,39,0.00,,,0.00,WUHU216HW,2013-02-19 17:53:00,
2013-02-19 11:58:00,30.6,9.2,30.33,NNW,338,9.2,20.1,40,0.00,,,0.00,WUHU216HW,2013-02-19 17:58:00,
2013-02-19 12:03:00,32.0,10.4,30.33,North,0,8.7,17.2,40,0.00,,,0.00,WUHU216HW,2013-02-19 18:03:00,
2013-02-19 12:08:00,33.3,9.1,30.33,NW,315,14.8,14.8,36,0.00,,,0.00,WUHU216HW,2013-02-19 18:08:00,
2013-02-19 12:13:00,33.8,10.2,30.33,WNW,293,10.1,14.8,37,0.00,,,0.00,WUHU216HW,2013-02-19 18:13:00,
2013-02-19 12:18:00,33.5,10.4,30.33,NNW,338,12.1,15.7,38,0.00,,,0.00,WUHU216HW,2013-02-19 18:18:00,
2013-02-19 12:23:00,33.8,9.5,30.33,NW,315,14.3,15.7,36,0.00,,,0.00,WUHU216HW,2013-02-19 18:23:00,
2013-02-19 12:28:00,33.3,10.4,30.33,WNW,293,10.5,16.1,38,0.00,,,0.00,WUHU216HW,2013-02-19 18:28:00,
2013-02-19 12:33:00,34.4,10.6,30.33,NNW,338,12.1,16.1,37,0.00,,,0.00,WUHU216HW,2013-02-19 18:33:00,
2013-02-19 12:38:00,35.1,10.0,30.32,NW,315,19.2,19.2,35,0.00,,,0.00,WUHU216HW,2013-02-19 18:38:00,
2013-02-19 12:43:00,34.6,7.7,30.33,NNW,338,11.9,19.2,32,0.00,,,0.00,WUHU216HW,2013-02-19 18:43:00,
2013-02-19 12:48:00,33.8,8.9,30.32,NW,315,12.8,17.2,35,0.00,,,0.00,WUHU216HW,2013-02-19 18:48:00,
2013-02-19 12:53:00,34.4,9.4,30.32,NW,315,13.6,17.2,35,0.00,,,0.00,WUHU216HW,2013-02-19 18:53:00,
2013-02-19 12:58:00,35.3,8.2,30.32,NNW,338,12.8,17.2,32,0.00,,,0.00,WUHU216HW,2013-02-19 18:58:00,
2013-02-19 13:03:00,34.4,8.1,30.32,NNW,338,12.8,14.5,33,0.00,,,0.00,WUHU216HW,2013-02-19 19:03:00,
2013-02-19 13:08:00,34.2,7.9,30.32,NW,315,10.3,15.4,33,0.00,,,0.00,WUHU216HW,2013-02-19 19:08:00,